INTELSAT 33E DEB, 64410

Orbit data source: Space-Track

INTELSAT 33E DEB, 64410 is space debris in GEO originally from a launch on Wed, 24 Aug 2016 UTC launched from the French Guiana (FRGUI). Debris objects in space refer to the collection of defunct objects orbiting the Earth. Examples of debris include non-operational satellites, rocket bodies, and fragments generated from explosions, collisions, or faulty payload assembly.

Not visible in the next 10 days
Identifier
64410, 2016-053AQ
Orbit
GEO
Country
Flag of UnknownUnknown / ITSO
Related business
Manufacturer
Boeing/ES
Mission
Spacecraft
Bus & Motor
Unknown
Mass
Unknown
Launch date (UTC)
2016-08-24 (9 years ago)
Launch vehicle
Unknown
Launch site
French Guiana (FRGUI)
Object type
Payload
Rocket body
Debris
Shape & HBR
Unknown shape, 1.1 m
Radar Cross Section
RCS unknown

Expand to show TLE details & history
Last TLE update: 3 days ago

TLE from 3 days ago
0 INTELSAT 33E DEB
1 64410U 16053AQ  25311.76091485  .00000153  00000-0  00000-0 0  9991
2 64410   0.9068  65.6043 0055604  16.4567 278.6003  0.99992859  3675
Epoch: 2025-11-07T18:15Z
TLE epoch observation values (Epoch: 2025-11-07T18:15:43.043Z)
Latitude
-0.80348°
Longitude
38.87297°
Altitude
35,829.764 km
Speed
3.074 km/s
True Right ascension
00h 00m 00s
True Declination
0° 48' 10"
Sunlit
Object was in daylight at epoch
Visualization orbit readout
Latitude
Unknown
Longitude
Unknown
Altitude
Unknown
Speed
Unknown
Apparent Right ascension
Unknown
Apparent Declination
Unknown
Sunlit
N/A
Visualization observer readout
Local Sidereal Time
03:05:57
Azimuth
Unknown
Elevation
Unknown
Doppler factor
Unknown
Orbital elements
Apogee altitude
36,100.932 km
Perigee altitude
35,631.143 km
Semi-major axis
42,244.175 km
Eccentricity
0.00556
Inclination
0.9068°
RAAN
65.6043°
Arg. of periapsis
16.4567°
True anomaly
277.96965°
Mean anomaly
278.6003°
Eccentric anomaly
278.28504°
Mean motion
0.24997 °/min
Orbital period
1,440.16 mins
BSTAR
0
Loading maneuver chart data...
Computing Atmospheric mass density...
Loading historical data...
Loading historical data...
Loading historical data...
Loading historical data...
Loading historical data...
Loading historical data...
Loading historical data...

Documentation

Showing up to 5 results
|